星链-35867(STARLINK-35867)

导读 | 豆包AI

STARLINK-35867是美国SpaceX星链互联网星座中的一颗卫星,于2025年12月1日发射入轨,是星链低轨互联网星座组网建设的组成部分。这类卫星主要通过近地轨道部署,为全球范围提供高速低延迟的宽带互联网服务,尤其服务偏远地区及地面网络未覆盖区域,延续了星链星座持续扩容、完善全球覆盖能力的建设节奏。

基本信息
目录编号:
66791
目录名称:
STARLINK-35867
国际标识:
2025-278A
轨道中心:
EARTH
卫星名称:
星链-35867
卫星全名:
星链-35867(STARLINK-35867)
卫星状态:
在轨 (已飞行149 天)
发射日期:
2025-12-01 UTC
国别 :
美国 (US)
星等 :
--
轨道信息
数据来源 国际轨道数据
星历时间: 2026-04-28T21:48:01+0800
13小时前
查看轨道信息
半长轴: 6861.186km
偏心率: 0.0001609
轨道倾角: 43.000°
近地点辐角 263.673°
升交点赤经 193.063°
平近点角 96.394°
近地点: 481.945km
远地点: 484.153km
周期: 94.267分钟
每日圈数: 15.275803
详细信息
固有亮度:
5
最大亮度:
2.5
卫星平台:
Starlink V1.0
覆盖范围:
全球
运营商:
太空探索技术公司
运营商所在国:
美国
制造商(研发单位):
太空探索技术公司
制造商所在国:
美国
使用方式:
暂无
卫星简介
Starlink 计划是 SpaceX 推出的全球卫星互联网项目,通过发射低轨道卫星,为全球尤其是偏远地区提供高速、低延迟的互联网服务。自 2019 年起,Starlink 已部署数千颗卫星,旨在缩小全球数字鸿沟,推动互联网普及。该项目还为军事、航空等行业提供通信支持,带来广泛经济效益。
2D轨道图
3D轨道图
轨道高度分析图
轨道倾角分析图
轨道综合分析图
查看轨道综合分析图